SCP
-0 -0 -0 -0 0 0 -0 0 0 0 -0 -0 -0 -0 -0 -0 -0 -0 0 -0 -0 -0 -0 -0 -0 -0 -0 -0 -0 -0 -0 -0 -0 -0 -0 -0 -0 -0 -0 -0 -0 -0 -0 -0 -0 -0 0 -0 -0
-0 -0 -0 -0 0 0 -0 0 -0 -0 -0 0 0 0 0 -0 0 0 -0 -0 -0 -0 -0 -0 -0 -0 -0 -0 -0 -0 -0 -0 -0 -0 -0 -0 -0 -0 -0 -0 -0 -0 -0 -0 -0 0 -0 -0 0
-0 -0 -0 -0 -0 0 0 0 0 -0 -0 0 0 0 0 0 0 0 0 -0 -0 -0 -0 -0 -0 -0 -0 -0 -0 -0 -0 -0 -0 -0 -0 -0 -0 -0 -0 -0 -0 -0 -0 -0 -0 -0 0 0 0
-0 0 0 0 0 0 0 0 -0 -0 0 0 0 0 0 0 0 0 -0 -0 -0 -0 -0 -1 -0 -0 -0 -0 -0 -0 -0 -0 -0 -0 -0 -0 -0 -0 -0 -0 -0 -0 -0 -0 0 0 0 0 0
0 -0 -0 -0 0 0 0 0 0 -0 0 -0 0 0 0 0 0 0 -0 -0 -0 -0 -0 -0 -0 -0 -0 -0 -0 -0 -0 -0 -0 -0 -0 -0 0 0 -0 -0 -0 -0 0 0 0 0 0 0 0
0 -0 -0 0 0 -0 -0 0 -0 -0 0 -0 0 0 0 1 1 1 0 -0 -0 -0 -0 -0 -0 -0 -0 -0 -0 -0 -0 -0 -0 -0 -0 -0 -0 -0 -0 -0 0 0 0 0 0 0 0 0 0
0 -0 -0 -0 -0 -0 -0 0 0 0 0 0 -0 0 0 0 0 1 0 0 -0 -0 -0 -0 -0 -0 -0 -0 -0 -0 -0 -0 -0 -0 -0 -0 -0 0 0 0 0 0 0 0 0 0 0 0 0
0 -0 0 -0 -0 -0 0 0 -0 -0 0 -0 -0 0 0 0 0 1 0 0 0 -0 -0 -0 -0 -0 -0 -0 -0 -0 -0 -0 -0 -0 -0 0 0 0 0 0 0 0 0 0 0 0 0 0 0
-0 0 0 -0 -0 -0 0 0 -0 -0 -0 -0 -0 -0 0 0 -0 0 0 0 0 -0 -0 -0 -0 -0 -0 -0 -0 -0 -0 -0 -0 -0 -0 0 0 -0 -0 -0 0 0 0 0 0 0 0 0 0
-0 0 -0 -0 -0 -0 0 0 -0 -0 0 0 0 0 0 0 -0 -0 0 0 -0 -0 -0 -0 -0 -0 -0 0 -0 -0 -0 -0 -0 -0 -0 -0 0 -0 0 0 0 0 0 0 0 0 0 0 0
0 0 -0 0 0 -0 -0 0 -0 -0 -0 0 -0 0 0 0 -0 -0 -0 -0 -0 -0 -0 -0 -0 0 0 0 0 -0 -0 -0 -0 -0 -0 -0 -0 0 0 0 0 0 0 0 0 0 0 0 0
-0 -0 -0 0 0 -0 -0 -0 0 0 -0 -0 -0 -0 0 0 -0 -0 -0 -0 -0 -0 -0 -0 -0 -0 -0 0 0 0 0 -0 -0 -0 -0 -0 0 0 0 0 0 0 0 0 0 0 0 0 0
0 0 -0 0 0 0 -0 -0 -0 -0 -0 0 -0 0 0 0 -0 -0 -0 -0 -0 -0 -0 -0 -0 -0 -0 -0 0 0 0 -0 0 -0 -0 -0 0 0 0 0 0 0 0 0 0 0 1 1 1
-0 -0 -0 -0 -0 -0 -0 0 -0 0 -0 -0 0 0 -0 0 -0 -0 -0 -0 -0 -0 -0 -0 -0 -0 -0 -0 -0 -0 -0 0 0 0 -0 -0 0 0 0 0 0 0 0 1 1 3 2 2 1
-0 0 0 0 -0 0 -0 0 0 -0 0 -0 -0 0 -0 -0 -0 -0 -0 -0 -0 -0 -0 -0 -0 -0 -0 -0 -0 -0 -0 -0 -0 0 0 0 0 0 0 0 0 1 2 2 2 1 0 0 0
0 -0 0 0 0 0 -0 0 0 0 0 0 0 0 -0 -0 -0 -0 -0 -0 -0 -0 -1 -0 -0 -0 -0 -0 -0 -0 -0 0 0 0 0 0 0 1 1 1 1 3 2 0 0 0 0 0 0
0 0 0 0 0 0 0 0 0 0 0 0 0 0 0 0 -0 -0 -0 -0 -0 -0 -0 -0 -0 -0 -0 -0 0 0 0 0 0 0 0 0 0 1 2 2 3 3 1 0 0 0 0 0 0
0 0 0 0 0 0 0 0 0 0 0 0 0 -0 0 -0 -0 0 -0 0 0 0 0 0 -0 -0 0 0 0 0 0 0 0 0 0 0 1 1 2 4 6 4 2 0 0 0 0 0 -0
0 0 0 0 0 0 0 0 0 0 0 0 0 0 0 -0 -0 0 0 -0 -0 -0 0 0 -0 0 0 0 0 1 0 0 1 1 1 1 2 2 6 6 6 6 3 0 0 0 0 -0 -0
-0 -0 0 0 0 0 0 0 0 0 0 -0 -0 0 0 0 0 -0 0 0 0 0 -0 0 -0 0 1 1 1 2 -0 -0 0 1 1 3 2 4 4 6 4 3 1 0 0 0 0 0 0
0 0 0 0 0 0 0 -0 -0 -0 -0 -0 -0 -0 -0 -1 -0 -0 -0 0 0 -0 -0 -0 0 1 1 1 2 2 3 3 1 1 1 2 3 3 4 3 4 2 0 0 0 0 0 -0 0
0 0 0 0 0 -0 0 -0 -0 -0 -0 -0 -0 -0 -0 -1 -1 -1 0 0 0 0 -0 -0 0 0 1 1 0 1 3 4 3 3 4 3 3 2 4 3 2 1 1 0 0 0 0 0 0
-0 -0 0 0 0 -0 0 0 -0 -0 -0 -0 -0 -0 -0 -0 -0 -0 -0 0 0 0 0 -0 0 0 0 1 1 1 1 2 3 3 2 2 4 3 3 2 3 1 2 0 0 0 0 0 0
0 -0 -0 0 0 -0 0 0 0 -0 -0 -0 -0 -0 -0 -0 -0 -0 0 -0 0 0 0 1 1 0 0 0 1 1 2 1 -0 -1 1 2 5 1 2 1 1 0 0 0 0 0 0 0 0
-0 0 0 -0 0 0 0 -0 0 0 -0 -0 -0 -0 -0 -0 -0 -0 -0 0 0 0 1 1 0 1 0 -0 0 -0 -1 -1 -1 -0 1 3 2 1 1 1 0 0 0 0 0 0 0 0 0
-0 0 -0 -0 -0 -0 0 0 0 0 0 -0 -0 -0 -0 -0 -0 -0 -0 0 0 0 0 0 -0 -0 0 -1 -1 -2 -2 0 2 2 1 2 4 3 1 0 0 0 0 0 0 0 0 0 0
0 0 0 0 0 -0 0 0 0 0 0 0 -0 -0 -0 -0 -0 0 0 0 0 0 1 1 0 0 0 1 1 1 1 1 1 1 1 2 2 0 0 0 0 0 0 0 0 0 0 0 0
0 0 0 0 0 0 0 0 0 0 0 0 0 0 0 0 0 0 0 0 0 1 0 0 1 1 1 1 2 2 1 1 0 0 0 0 0 0 0 0 0 0 0 0 0 0 0 0 0
0 0 0 0 0 0 0 0 0 0 0 0 0 0 0 0 0 0 0 0 0 0 0 0 1 1 2 2 2 2 1 0 0 0 0 0 0 0 0 0 0 0 0 0 0 0 0 0 0
0 0 0 0 0 0 0 0 0 0 0 0 0 0 0 0 0 0 0 0 0 0 0 0 0 0 0 1 1 1 1 0 0 0 0 0 0 0 0 0 0 0 0 0 0 0 0 0 0
Wind_Speed_500mb
23 28 11 8 15 13 16 10 9 6 6 2 7 11 18 21 15 11 1 22 34 47 49 51 48 46 44 42 40 38 35 32 31 29 26 25 23 22 23 24 24 25 26 27 26 24 22 20 20
17 22 10 14 14 11 15 12 8 10 13 9 10 13 13 9 7 2 7 24 38 47 50 52 50 47 42 39 37 35 33 31 29 27 26 25 23 23 21 22 23 25 26 26 25 23 22 21 21
15 16 20 12 7 16 12 17 21 14 8 14 9 6 13 8 4 3 8 29 44 46 47 51 50 46 42 38 35 32 31 30 29 28 27 25 23 21 21 21 23 25 27 27 26 25 23 20 19
7 10 12 19 7 19 12 19 19 12 6 9 11 14 3 3 2 3 14 34 43 44 44 48 49 44 40 38 34 32 30 28 29 29 28 26 23 21 19 21 24 27 27 28 28 25 22 20 20
8 19 17 11 2 3 9 22 20 20 8 6 5 7 6 2 6 10 21 35 41 43 42 47 48 43 38 35 34 33 30 29 29 29 28 26 23 20 18 21 25 28 30 31 30 27 25 24 23
27 14 18 17 10 4 8 20 29 24 6 6 6 8 4 5 10 15 24 31 35 40 41 45 48 44 38 34 34 33 31 30 28 29 29 27 24 21 19 21 25 29 31 32 32 30 28 27 26
27 15 24 9 11 9 9 25 25 25 18 6 8 14 6 8 15 20 25 28 32 36 40 40 49 46 40 36 35 35 33 30 28 29 28 28 26 24 21 20 26 29 32 33 34 32 31 30 30
22 15 28 18 13 8 8 24 21 23 15 6 6 7 6 12 23 23 26 25 28 35 39 37 42 45 44 40 38 38 36 34 31 30 30 29 29 26 23 21 25 29 32 34 35 34 32 32 32
14 18 21 23 14 8 11 25 24 22 19 13 13 13 2 19 27 26 28 26 29 34 39 37 39 39 38 34 37 41 41 38 35 33 32 31 28 24 26 24 26 29 33 34 34 33 32 32 31
19 16 20 10 16 21 27 26 30 23 16 15 9 9 11 19 26 28 31 31 34 37 39 38 39 39 37 36 33 42 39 40 39 36 33 33 26 25 25 29 28 29 32 34 34 33 32 32 22
9 19 11 17 18 24 28 28 17 26 23 7 19 8 18 23 27 27 28 28 34 36 38 41 41 41 39 37 34 31 34 33 34 39 35 29 27 28 28 25 25 30 28 30 31 33 30 25 27
15 8 12 14 10 20 24 27 28 30 34 28 22 18 18 26 28 27 30 30 34 37 39 39 41 42 42 37 36 34 34 34 33 32 40 37 32 30 27 25 25 26 27 25 28 26 28 30 30
16 7 13 18 23 25 24 28 26 37 33 34 34 21 22 27 29 28 29 28 33 36 37 39 41 43 45 52 37 37 36 36 34 34 34 36 33 30 28 29 29 30 28 29 27 27 29 29 31
6 22 27 21 18 16 16 23 8 20 26 30 29 30 27 30 30 29 33 34 37 37 40 40 40 44 46 46 48 38 38 38 38 36 36 39 38 35 33 33 34 32 32 30 29 29 34 31 26
19 25 7 12 2 1 18 21 6 28 23 18 15 21 23 24 26 34 33 39 40 41 42 44 45 44 46 47 47 47 40 38 40 39 42 46 45 45 43 37 38 36 41 41 42 29 27 36 38
16 12 14 18 10 5 16 5 22 23 20 12 12 17 18 18 27 34 37 38 42 44 48 50 46 48 52 49 48 47 47 48 42 41 41 47 51 50 49 48 42 50 47 41 40 21 34 73 73
10 8 3 10 10 9 6 18 20 18 14 11 12 12 16 21 29 34 39 43 46 49 50 51 53 55 53 52 55 53 48 50 46 43 44 47 49 47 53 50 40 55 53 48 61 62 45 54 67
8 0 5 3 13 17 8 12 18 16 12 13 17 19 19 22 29 20 33 42 48 50 53 53 52 56 55 45 51 54 53 55 55 56 54 53 52 48 47 52 62 60 70 70 73 58 41 36 48
7 6 7 4 8 18 13 10 19 21 21 23 22 22 27 34 38 34 34 34 47 51 52 52 54 51 54 55 58 59 47 54 57 58 58 48 50 51 63 66 73 67 64 60 56 40 27 29 37
7 10 10 11 6 15 12 13 25 26 32 36 37 37 34 30 30 28 27 28 37 43 45 51 58 57 64 67 63 49 67 50 48 33 52 60 53 64 56 63 63 60 54 43 20 20 31 50 39
5 14 15 15 19 5 11 20 16 15 33 40 43 43 44 39 36 37 34 18 19 26 29 39 46 57 61 60 53 54 63 66 47 31 31 33 39 47 65 62 69 54 54 53 38 48 35 38 47
3 11 10 12 16 10 14 14 22 20 32 36 47 50 52 51 48 49 45 42 24 7 10 17 24 34 46 52 46 33 37 37 32 24 21 35 38 38 48 57 56 59 51 59 26 48 52 42 45
14 10 10 7 4 13 8 10 26 30 28 32 45 51 53 52 50 49 47 47 40 33 20 23 7 13 21 30 32 35 29 22 19 19 25 31 35 33 35 43 45 52 44 59 47 61 52 42 47
6 15 12 10 10 8 6 16 21 20 28 29 39 46 52 54 55 54 49 46 43 37 34 25 11 8 10 15 17 21 28 23 17 20 25 40 53 42 62 61 48 60 76 69 54 42 36 32 29
14 14 5 6 2 8 4 12 15 20 27 29 32 41 48 52 57 59 61 56 49 42 36 28 17 12 11 9 8 5 5 9 16 30 40 46 62 61 61 48 60 75 72 64 39 24 25 26 26
11 12 11 9 9 14 14 2 12 16 27 32 35 39 46 52 54 56 57 53 51 46 36 20 23 15 15 15 17 16 17 12 25 37 44 46 43 42 41 48 46 61 54 34 19 20 20 22 21
7 7 9 13 11 16 5 15 9 18 26 39 45 51 54 55 55 56 56 55 52 46 34 28 19 16 16 15 15 14 14 28 40 53 51 39 34 37 33 29 27 38 29 18 18 18 20 20 19
15 5 10 7 12 17 12 16 7 22 30 33 39 46 47 47 48 51 54 56 48 40 31 34 24 19 10 12 13 24 29 39 44 38 34 33 21 23 23 16 20 22 20 17 18 14 14 14 17
9 3 5 8 8 17 20 8 8 15 21 24 30 34 39 43 46 49 50 53 54 50 43 36 26 19 12 16 23 25 31 28 23 25 30 29 23 17 1 12 14 11 12 14 11 13 14 19 23
5 6 8 11 17 19 14 19 8 12 19 21 23 27 31 35 39 43 45 47 53 51 50 42 25 11 16 24 29 28 17 16 21 19 19 18 14 10 9 6 6 2 3 9 11 13 16 19 22
Wind_Direction_500mb
350 353 332 278 245 242 99 103 5 312 249 317 340 288 344 324 337 3 88 181 163 169 173 171 172 173 176 177 176 176 179 181 182 181 179 172 170 169 170 170 171 172 175 179 180 178 176 173 175
350 347 307 277 267 211 90 26 343 334 343 276 279 270 272 320 341 338 116 166 167 170 172 174 174 176 175 176 177 177 179 181 184 184 182 180 178 176 176 178 180 182 184 186 184 183 181 184 187
343 345 288 303 272 32 43 24 4 348 300 229 273 278 317 2 345 131 176 165 162 170 171 179 176 177 177 180 182 184 186 186 187 189 189 187 185 183 187 191 193 194 194 191 188 187 189 192 198
315 257 232 259 52 84 32 7 356 356 154 236 282 277 230 263 329 138 161 161 167 169 172 182 180 180 182 185 189 193 194 193 193 194 193 192 192 191 198 203 203 203 198 194 192 195 198 203 212
274 261 260 244 143 23 13 5 345 353 331 289 264 342 292 307 192 142 155 161 169 172 177 185 184 184 187 191 196 199 200 201 201 199 199 199 200 201 210 213 209 203 199 198 199 204 209 217 226
252 264 244 218 146 10 10 4 342 349 17 355 249 311 4 155 141 144 155 162 171 177 179 185 187 190 193 197 203 206 207 208 207 206 207 205 208 211 217 215 210 204 202 206 209 215 221 229 238
252 246 258 294 275 274 0 344 338 336 334 37 324 294 66 169 162 146 157 165 176 182 180 188 192 194 197 202 208 212 214 215 215 214 214 214 215 217 220 218 215 211 212 216 219 225 232 241 249
263 273 255 229 248 263 354 325 347 335 342 335 278 326 81 165 160 153 163 172 179 187 187 193 191 199 202 207 209 214 218 219 220 220 220 220 222 223 225 226 222 223 223 224 227 233 240 249 257
241 250 243 237 247 272 328 332 339 326 296 293 280 306 250 165 160 164 166 176 183 189 194 196 198 203 203 208 218 216 219 222 224 225 224 225 228 234 236 237 236 229 230 232 234 239 247 256 266
233 239 247 346 294 289 315 319 322 316 303 294 239 222 174 175 175 182 180 184 191 196 197 200 201 203 205 207 214 221 222 225 227 229 230 229 227 225 224 233 241 238 238 239 241 247 254 262 260
190 263 4 273 263 290 302 300 308 294 288 333 317 323 199 196 198 197 194 196 195 194 196 200 205 207 207 213 215 216 217 223 227 228 227 227 227 234 237 236 248 246 248 244 255 252 259 254 254
262 253 275 292 282 287 288 306 290 286 283 300 295 290 218 210 209 205 202 200 197 199 200 202 206 208 211 215 220 220 219 223 224 230 235 227 232 231 229 236 238 239 233 236 239 246 258 254 260
251 266 280 272 281 285 285 268 277 281 286 276 269 261 232 222 216 211 202 206 203 203 204 206 207 213 217 219 218 222 225 230 230 231 235 231 233 235 238 238 236 235 234 234 240 254 254 258 266
331 293 284 279 280 269 285 304 255 336 317 290 261 253 250 241 224 208 201 207 209 210 211 211 212 218 222 226 224 225 229 232 234 234 236 243 237 236 236 239 239 237 229 226 237 234 256 257 254
280 282 239 194 211 248 309 220 331 342 326 288 253 255 262 249 229 219 215 209 211 215 212 215 217 220 231 232 235 236 234 239 239 241 240 246 248 243 241 239 238 233 232 238 240 252 265 275 275
260 248 192 104 355 71 307 354 21 346 337 298 278 279 271 252 236 231 223 222 217 213 222 222 218 220 233 235 240 243 246 246 243 243 242 248 248 247 250 246 240 233 236 238 262 279 290 293 278
204 97 18 153 57 327 320 356 11 349 336 320 311 301 264 256 251 239 233 228 226 224 217 224 227 225 228 236 238 243 242 247 245 245 245 244 242 239 246 246 240 241 244 252 256 264 280 289 278
21 329 99 348 25 329 309 348 32 357 323 308 314 311 297 280 270 277 259 241 235 232 232 226 229 233 232 232 241 241 250 252 254 252 246 242 240 233 231 240 244 254 248 262 257 255 252 270 287
326 316 321 11 37 309 17 320 36 36 33 26 6 343 319 305 305 298 277 255 241 231 234 234 234 231 236 237 247 252 258 252 249 253 254 254 252 243 245 249 257 251 248 254 246 266 264 289 281
251 285 40 256 24 298 4 76 79 59 58 52 35 25 8 349 349 336 314 269 243 241 236 241 247 246 250 248 249 246 276 280 265 294 271 266 261 259 245 254 257 256 249 207 188 342 261 236 272
140 354 5 345 317 221 278 103 78 73 60 33 29 25 24 22 17 17 11 339 253 245 248 243 252 258 256 253 251 246 232 255 279 304 297 295 299 291 283 279 262 254 248 220 223 313 230 239 274
96 22 328 322 302 83 308 116 77 33 38 34 28 25 22 24 28 30 28 29 24 341 272 262 254 246 255 259 254 260 245 251 267 289 291 297 314 313 291 281 269 269 263 220 257 278 246 260 256
39 345 335 314 148 241 73 277 75 41 20 20 20 24 24 26 31 31 32 35 32 41 69 39 2 225 229 244 257 256 272 275 267 282 297 312 305 298 289 282 285 261 272 232 266 251 252 249 237
312 262 207 222 207 188 28 304 79 25 11 9 18 22 21 22 26 29 32 29 31 38 38 52 52 100 137 202 222 236 253 271 267 302 291 300 298 287 291 303 275 264 268 239 245 253 243 222 226
223 286 260 226 273 39 31 255 54 28 22 17 15 20 21 19 20 21 22 23 22 26 36 40 46 65 69 67 69 49 24 7 324 327 313 302 305 306 303 285 269 264 247 232 233 205 217 224 234
36 331 1 310 345 355 141 68 80 48 28 20 22 23 24 22 19 17 18 17 17 20 31 36 33 37 73 82 47 38 24 13 326 323 317 308 293 288 287 282 278 239 220 198 193 217 217 233 247
68 14 5 302 206 263 74 116 165 38 24 16 15 18 19 19 19 20 19 18 15 17 18 28 25 27 62 79 77 66 340 333 326 316 313 316 307 299 294 282 246 221 183 192 204 205 232 230 252
17 64 270 238 293 305 294 279 62 24 9 6 10 13 14 17 20 22 23 23 25 24 4 25 29 37 94 104 28 341 328 324 328 337 342 351 333 315 300 253 191 181 175 201 212 228 251 249 261
316 259 332 293 297 307 300 344 39 22 14 0 7 8 12 15 19 21 23 22 22 27 27 27 33 23 29 357 341 328 319 339 9 19 23 27 8 357 1 116 175 179 197 233 245 240 252 265 272
314 22 353 315 316 309 290 290 51 26 21 7 10 14 18 19 22 24 24 23 25 22 20 20 11 3 343 341 332 330 337 351 354 5 20 41 50 77 85 101 138 90 214 256 271 275 271 275 275
Wind_Speed_850mb
23 28 11 8 15 13 16 10 9 6 6 2 7 11 18 21 15 11 1 22 34 47 49 51 48 46 44 42 40 38 35 32 31 29 26 25 23 22 23 24 24 25 26 27 26 24 22 20 20
17 22 10 14 14 11 15 12 8 10 13 9 10 13 13 9 7 2 7 24 38 47 50 52 50 47 42 39 37 35 33 31 29 27 26 25 23 23 21 22 23 25 26 26 25 23 22 21 21
15 16 20 12 7 16 12 17 21 14 8 14 9 6 13 8 4 3 8 29 44 46 47 51 50 46 42 38 35 32 31 30 29 28 27 25 23 21 21 21 23 25 27 27 26 25 23 20 19
7 10 12 19 7 19 12 19 19 12 6 9 11 14 3 3 2 3 14 34 43 44 44 48 49 44 40 38 34 32 30 28 29 29 28 26 23 21 19 21 24 27 27 28 28 25 22 20 20
8 19 17 11 2 3 9 22 20 20 8 6 5 7 6 2 6 10 21 35 41 43 42 47 48 43 38 35 34 33 30 29 29 29 28 26 23 20 18 21 25 28 30 31 30 27 25 24 23
27 14 18 17 10 4 8 20 29 24 6 6 6 8 4 5 10 15 24 31 35 40 41 45 48 44 38 34 34 33 31 30 28 29 29 27 24 21 19 21 25 29 31 32 32 30 28 27 26
27 15 24 9 11 9 9 25 25 25 18 6 8 14 6 8 15 20 25 28 32 36 40 40 49 46 40 36 35 35 33 30 28 29 28 28 26 24 21 20 26 29 32 33 34 32 31 30 30
22 15 28 18 13 8 8 24 21 23 15 6 6 7 6 12 23 23 26 25 28 35 39 37 42 45 44 40 38 38 36 34 31 30 30 29 29 26 23 21 25 29 32 34 35 34 32 32 32
14 18 21 23 14 8 11 25 24 22 19 13 13 13 2 19 27 26 28 26 29 34 39 37 39 39 38 34 37 41 41 38 35 33 32 31 28 24 26 24 26 29 33 34 34 33 32 32 31
19 16 20 10 16 21 27 26 30 23 16 15 9 9 11 19 26 28 31 31 34 37 39 38 39 39 37 36 33 42 39 40 39 36 33 33 26 25 25 29 28 29 32 34 34 33 32 32 22
9 19 11 17 18 24 28 28 17 26 23 7 19 8 18 23 27 27 28 28 34 36 38 41 41 41 39 37 34 31 34 33 34 39 35 29 27 28 28 25 25 30 28 30 31 33 30 25 27
15 8 12 14 10 20 24 27 28 30 34 28 22 18 18 26 28 27 30 30 34 37 39 39 41 42 42 37 36 34 34 34 33 32 40 37 32 30 27 25 25 26 27 25 28 26 28 30 30
16 7 13 18 23 25 24 28 26 37 33 34 34 21 22 27 29 28 29 28 33 36 37 39 41 43 45 52 37 37 36 36 34 34 34 36 33 30 28 29 29 30 28 29 27 27 29 29 31
6 22 27 21 18 16 16 23 8 20 26 30 29 30 27 30 30 29 33 34 37 37 40 40 40 44 46 46 48 38 38 38 38 36 36 39 38 35 33 33 34 32 32 30 29 29 34 31 26
19 25 7 12 2 1 18 21 6 28 23 18 15 21 23 24 26 34 33 39 40 41 42 44 45 44 46 47 47 47 40 38 40 39 42 46 45 45 43 37 38 36 41 41 42 29 27 36 38
16 12 14 18 10 5 16 5 22 23 20 12 12 17 18 18 27 34 37 38 42 44 48 50 46 48 52 49 48 47 47 48 42 41 41 47 51 50 49 48 42 50 47 41 40 21 34 73 73
10 8 3 10 10 9 6 18 20 18 14 11 12 12 16 21 29 34 39 43 46 49 50 51 53 55 53 52 55 53 48 50 46 43 44 47 49 47 53 50 40 55 53 48 61 62 45 54 67
8 0 5 3 13 17 8 12 18 16 12 13 17 19 19 22 29 20 33 42 48 50 53 53 52 56 55 45 51 54 53 55 55 56 54 53 52 48 47 52 62 60 70 70 73 58 41 36 48
7 6 7 4 8 18 13 10 19 21 21 23 22 22 27 34 38 34 34 34 47 51 52 52 54 51 54 55 58 59 47 54 57 58 58 48 50 51 63 66 73 67 64 60 56 40 27 29 37
7 10 10 11 6 15 12 13 25 26 32 36 37 37 34 30 30 28 27 28 37 43 45 51 58 57 64 67 63 49 67 50 48 33 52 60 53 64 56 63 63 60 54 43 20 20 31 50 39
5 14 15 15 19 5 11 20 16 15 33 40 43 43 44 39 36 37 34 18 19 26 29 39 46 57 61 60 53 54 63 66 47 31 31 33 39 47 65 62 69 54 54 53 38 48 35 38 47
3 11 10 12 16 10 14 14 22 20 32 36 47 50 52 51 48 49 45 42 24 7 10 17 24 34 46 52 46 33 37 37 32 24 21 35 38 38 48 57 56 59 51 59 26 48 52 42 45
14 10 10 7 4 13 8 10 26 30 28 32 45 51 53 52 50 49 47 47 40 33 20 23 7 13 21 30 32 35 29 22 19 19 25 31 35 33 35 43 45 52 44 59 47 61 52 42 47
6 15 12 10 10 8 6 16 21 20 28 29 39 46 52 54 55 54 49 46 43 37 34 25 11 8 10 15 17 21 28 23 17 20 25 40 53 42 62 61 48 60 76 69 54 42 36 32 29
14 14 5 6 2 8 4 12 15 20 27 29 32 41 48 52 57 59 61 56 49 42 36 28 17 12 11 9 8 5 5 9 16 30 40 46 62 61 61 48 60 75 72 64 39 24 25 26 26
11 12 11 9 9 14 14 2 12 16 27 32 35 39 46 52 54 56 57 53 51 46 36 20 23 15 15 15 17 16 17 12 25 37 44 46 43 42 41 48 46 61 54 34 19 20 20 22 21
7 7 9 13 11 16 5 15 9 18 26 39 45 51 54 55 55 56 56 55 52 46 34 28 19 16 16 15 15 14 14 28 40 53 51 39 34 37 33 29 27 38 29 18 18 18 20 20 19
15 5 10 7 12 17 12 16 7 22 30 33 39 46 47 47 48 51 54 56 48 40 31 34 24 19 10 12 13 24 29 39 44 38 34 33 21 23 23 16 20 22 20 17 18 14 14 14 17
9 3 5 8 8 17 20 8 8 15 21 24 30 34 39 43 46 49 50 53 54 50 43 36 26 19 12 16 23 25 31 28 23 25 30 29 23 17 1 12 14 11 12 14 11 13 14 19 23
5 6 8 11 17 19 14 19 8 12 19 21 23 27 31 35 39 43 45 47 53 51 50 42 25 11 16 24 29 28 17 16 21 19 19 18 14 10 9 6 6 2 3 9 11 13 16 19 22
Wind_Direction_850mb
350 353 332 278 245 242 99 103 5 312 249 317 340 288 344 324 337 3 88 181 163 169 173 171 172 173 176 177 176 176 179 181 182 181 179 172 170 169 170 170 171 172 175 179 180 178 176 173 175
350 347 307 277 267 211 90 26 343 334 343 276 279 270 272 320 341 338 116 166 167 170 172 174 174 176 175 176 177 177 179 181 184 184 182 180 178 176 176 178 180 182 184 186 184 183 181 184 187
343 345 288 303 272 32 43 24 4 348 300 229 273 278 317 2 345 131 176 165 162 170 171 179 176 177 177 180 182 184 186 186 187 189 189 187 185 183 187 191 193 194 194 191 188 187 189 192 198
315 257 232 259 52 84 32 7 356 356 154 236 282 277 230 263 329 138 161 161 167 169 172 182 180 180 182 185 189 193 194 193 193 194 193 192 192 191 198 203 203 203 198 194 192 195 198 203 212
274 261 260 244 143 23 13 5 345 353 331 289 264 342 292 307 192 142 155 161 169 172 177 185 184 184 187 191 196 199 200 201 201 199 199 199 200 201 210 213 209 203 199 198 199 204 209 217 226
252 264 244 218 146 10 10 4 342 349 17 355 249 311 4 155 141 144 155 162 171 177 179 185 187 190 193 197 203 206 207 208 207 206 207 205 208 211 217 215 210 204 202 206 209 215 221 229 238
252 246 258 294 275 274 0 344 338 336 334 37 324 294 66 169 162 146 157 165 176 182 180 188 192 194 197 202 208 212 214 215 215 214 214 214 215 217 220 218 215 211 212 216 219 225 232 241 249
263 273 255 229 248 263 354 325 347 335 342 335 278 326 81 165 160 153 163 172 179 187 187 193 191 199 202 207 209 214 218 219 220 220 220 220 222 223 225 226 222 223 223 224 227 233 240 249 257
241 250 243 237 247 272 328 332 339 326 296 293 280 306 250 165 160 164 166 176 183 189 194 196 198 203 203 208 218 216 219 222 224 225 224 225 228 234 236 237 236 229 230 232 234 239 247 256 266
233 239 247 346 294 289 315 319 322 316 303 294 239 222 174 175 175 182 180 184 191 196 197 200 201 203 205 207 214 221 222 225 227 229 230 229 227 225 224 233 241 238 238 239 241 247 254 262 260
190 263 4 273 263 290 302 300 308 294 288 333 317 323 199 196 198 197 194 196 195 194 196 200 205 207 207 213 215 216 217 223 227 228 227 227 227 234 237 236 248 246 248 244 255 252 259 254 254
262 253 275 292 282 287 288 306 290 286 283 300 295 290 218 210 209 205 202 200 197 199 200 202 206 208 211 215 220 220 219 223 224 230 235 227 232 231 229 236 238 239 233 236 239 246 258 254 260
251 266 280 272 281 285 285 268 277 281 286 276 269 261 232 222 216 211 202 206 203 203 204 206 207 213 217 219 218 222 225 230 230 231 235 231 233 235 238 238 236 235 234 234 240 254 254 258 266
331 293 284 279 280 269 285 304 255 336 317 290 261 253 250 241 224 208 201 207 209 210 211 211 212 218 222 226 224 225 229 232 234 234 236 243 237 236 236 239 239 237 229 226 237 234 256 257 254
280 282 239 194 211 248 309 220 331 342 326 288 253 255 262 249 229 219 215 209 211 215 212 215 217 220 231 232 235 236 234 239 239 241 240 246 248 243 241 239 238 233 232 238 240 252 265 275 275
260 248 192 104 355 71 307 354 21 346 337 298 278 279 271 252 236 231 223 222 217 213 222 222 218 220 233 235 240 243 246 246 243 243 242 248 248 247 250 246 240 233 236 238 262 279 290 293 278
204 97 18 153 57 327 320 356 11 349 336 320 311 301 264 256 251 239 233 228 226 224 217 224 227 225 228 236 238 243 242 247 245 245 245 244 242 239 246 246 240 241 244 252 256 264 280 289 278
21 329 99 348 25 329 309 348 32 357 323 308 314 311 297 280 270 277 259 241 235 232 232 226 229 233 232 232 241 241 250 252 254 252 246 242 240 233 231 240 244 254 248 262 257 255 252 270 287
326 316 321 11 37 309 17 320 36 36 33 26 6 343 319 305 305 298 277 255 241 231 234 234 234 231 236 237 247 252 258 252 249 253 254 254 252 243 245 249 257 251 248 254 246 266 264 289 281
251 285 40 256 24 298 4 76 79 59 58 52 35 25 8 349 349 336 314 269 243 241 236 241 247 246 250 248 249 246 276 280 265 294 271 266 261 259 245 254 257 256 249 207 188 342 261 236 272
140 354 5 345 317 221 278 103 78 73 60 33 29 25 24 22 17 17 11 339 253 245 248 243 252 258 256 253 251 246 232 255 279 304 297 295 299 291 283 279 262 254 248 220 223 313 230 239 274
96 22 328 322 302 83 308 116 77 33 38 34 28 25 22 24 28 30 28 29 24 341 272 262 254 246 255 259 254 260 245 251 267 289 291 297 314 313 291 281 269 269 263 220 257 278 246 260 256
39 345 335 314 148 241 73 277 75 41 20 20 20 24 24 26 31 31 32 35 32 41 69 39 2 225 229 244 257 256 272 275 267 282 297 312 305 298 289 282 285 261 272 232 266 251 252 249 237
312 262 207 222 207 188 28 304 79 25 11 9 18 22 21 22 26 29 32 29 31 38 38 52 52 100 137 202 222 236 253 271 267 302 291 300 298 287 291 303 275 264 268 239 245 253 243 222 226
223 286 260 226 273 39 31 255 54 28 22 17 15 20 21 19 20 21 22 23 22 26 36 40 46 65 69 67 69 49 24 7 324 327 313 302 305 306 303 285 269 264 247 232 233 205 217 224 234
36 331 1 310 345 355 141 68 80 48 28 20 22 23 24 22 19 17 18 17 17 20 31 36 33 37 73 82 47 38 24 13 326 323 317 308 293 288 287 282 278 239 220 198 193 217 217 233 247
68 14 5 302 206 263 74 116 165 38 24 16 15 18 19 19 19 20 19 18 15 17 18 28 25 27 62 79 77 66 340 333 326 316 313 316 307 299 294 282 246 221 183 192 204 205 232 230 252
17 64 270 238 293 305 294 279 62 24 9 6 10 13 14 17 20 22 23 23 25 24 4 25 29 37 94 104 28 341 328 324 328 337 342 351 333 315 300 253 191 181 175 201 212 228 251 249 261
316 259 332 293 297 307 300 344 39 22 14 0 7 8 12 15 19 21 23 22 22 27 27 27 33 23 29 357 341 328 319 339 9 19 23 27 8 357 1 116 175 179 197 233 245 240 252 265 272
314 22 353 315 316 309 290 290 51 26 21 7 10 14 18 19 22 24 24 23 25 22 20 20 11 3 343 341 332 330 337 351 354 5 20 41 50 77 85 101 138 90 214 256 271 275 271 275 275